Swansboro, NC

12:39 AM EDT on July 21, 2017 (GMT -0400)
Bogue McAlf

Weather History for KNJM - December, 2013

Change the Weather History Date:

Sunday, December 15, 2013

  Actual Average (KNKT) Record (KNKT)
Temperature  
Mean Temperature 52 °F -  
Max Temperature 62 °F 56 °F 73 °F (2015)
Min Temperature 39 °F 37 °F 19 °F (2010)
Degree Days  
Heating Degree Days 13    
Growing Degree Days 2 (Base 50)    
Moisture  
Dew Point 52 °F    
Average Humidity 87    
Maximum Humidity 97    
Minimum Humidity 66    
Precipitation  
Precipitation 0.02 in - - ()
Sea Level Pressure  
Sea Level Pressure 29.84 in    
Wind  
Wind Speed 5 mph (West)    
Max Wind Speed 12 mph    
Max Gust Speed 18 mph    
Visibility 7 miles    
Events Rain    
Averages and records for this station are not official NWS values.
T = Trace of Precipitation, MM = Missing Value Source: NWS Daily Summary

Daily Weather History Graph

Daily Weather History Graph

Search for Another Location

Airport or City:

Trip Planner

Search our weather history database for the weather conditions in past years. The results will help you decide how hot, cold, wet, or windy it might be!

Date:

Astronomy

Dec. 15, 2013 Rise Set
Actual Time 7:08 AM EST 4:58 PM EST
Civil Twilight 6:40 AM EST 5:26 PM EST
Nautical Twilight 6:08 AM EST 5:58 PM EST
Astronomical Twilight 5:37 AM EST 6:29 PM EST
Moon 3:58 PM EST (12/15) 5:25 AM EST (12/15)
Length of Visible Light 10h 46m
Length of Day
9h 50m
Waxing Gibbous, 97% of the Moon is Illuminated
Dec 15
Waxing Gibbous
Dec 17
Full
Dec 25
Last Quarter
Jan 1
New
Jan 7
First Quarter

Hourly Weather History & Observations

Time (EST) Temp. Windchill Dew Point Humidity Pressure Visibility Wind Dir Wind Speed Gust Speed Precip Events Conditions
12:14 AM 61.0 °F - 60.1 °F 97% 29.77 in 5.0 mi WSW 3.5 mph - 0.00 in Rain Light Rain
12:36 AM 61.0 °F - 60.1 °F 97% 29.77 in 4.0 mi SSW 6.9 mph - 0.00 in Rain Light Rain
12:48 AM 61.0 °F - 59.0 °F 93% 29.77 in 4.0 mi SW 6.9 mph - 0.00 in Rain Light Rain
12:57 AM 61.0 °F - 59.0 °F 93% 29.78 in 4.0 mi Variable 4.6 mph - 0.00 in Rain Light Rain
1:09 AM 62.1 °F - 60.1 °F 93% 29.75 in 5.0 mi SW 3.5 mph - 0.00 in Rain Light Rain
1:33 AM 61.0 °F - 59.0 °F 93% 29.74 in 2.5 mi SW 4.6 mph - 0.00 in   Overcast
1:57 AM 60.1 °F - 59.0 °F 96% 29.74 in 2.5 mi WSW 5.8 mph - 0.00 in   Overcast
2:34 AM 59.0 °F - 57.9 °F 96% 29.71 in 2.5 mi Calm Calm - N/A   Overcast
2:49 AM 59.0 °F - 57.9 °F 96% 29.71 in 1.5 mi SW 4.6 mph - N/A   Overcast
2:57 AM 59.0 °F - 57.0 °F 93% 29.73 in 1.8 mi WSW 5.8 mph - N/A   Overcast
3:27 AM 57.9 °F - 57.0 °F 97% 29.72 in 1.8 mi SW 4.6 mph - 0.00 in Rain Light Rain
3:45 AM 59.0 °F - 57.9 °F 96% 29.72 in 1.8 mi Calm Calm - 0.00 in   Overcast
3:52 AM 59.0 °F - 57.2 °F 94% 29.73 in 2.0 mi Variable 3.5 mph - 0.00 in   Overcast
3:57 AM 59.0 °F - 57.0 °F 93% 29.75 in 2.5 mi West 3.5 mph - 0.00 in   Overcast
4:06 AM 60.1 °F - 57.9 °F 93% 29.73 in 4.0 mi Variable 3.5 mph - N/A   Overcast
4:52 AM 62.6 °F - 57.2 °F 82% 29.74 in 10.0 mi WNW 9.2 mph 18.4 mph N/A   Overcast
4:57 AM 61.0 °F - 57.9 °F 90% 29.75 in 10.0 mi WNW 6.9 mph - N/A   Overcast
5:57 AM 59.0 °F - 55.9 °F 90% 29.78 in 10.0 mi Calm Calm - N/A   Overcast
6:57 AM 57.0 °F - 53.1 °F 87% 29.81 in 7.0 mi SW 5.8 mph - 0.00 in Rain Light Rain
7:57 AM 55.9 °F - 53.1 °F 90% 29.85 in 3.0 mi WNW 6.9 mph - 0.02 in Rain Light Rain
8:57 AM 57.0 °F - 53.1 °F 87% 29.85 in 10.0 mi West 6.9 mph - 0.00 in Rain Light Rain
9:44 AM 57.0 °F - 53.1 °F 87% 29.83 in 10.0 mi North - - 0.00 in   Mostly Cloudy
9:57 AM 57.0 °F - 52.0 °F 83% 29.85 in 10.0 mi West 9.2 mph 17.3 mph 0.00 in   Overcast
10:57 AM 55.9 °F - 51.1 °F 84% 29.83 in 10.0 mi Variable 5.8 mph - N/A   Overcast
11:28 AM 54.0 °F - 50.0 °F 86% 29.84 in 10.0 mi NW 9.2 mph - N/A   Mostly Cloudy
11:57 AM 54.0 °F - 48.9 °F 83% 29.84 in 10.0 mi NW 11.5 mph - N/A   Overcast
12:57 PM 54.0 °F - 48.9 °F 83% 29.86 in 10.0 mi Variable 5.8 mph 17.3 mph N/A   Mostly Cloudy
1:13 PM 54.0 °F - 46.9 °F 77% 29.86 in 10.0 mi West 5.8 mph - N/A   Overcast
1:57 PM 55.0 °F - 46.0 °F 72% 29.87 in 10.0 mi NW 4.6 mph - N/A   Scattered Clouds
2:57 PM 55.9 °F - 45.0 °F 67% 29.86 in 10.0 mi Variable 4.6 mph - N/A   Scattered Clouds
3:57 PM 54.0 °F - 43.0 °F 66% 29.89 in 10.0 mi North - - N/A   Clear
4:57 PM 52.0 °F - 42.1 °F 69% 29.93 in 10.0 mi WNW 3.5 mph - N/A   Partly Cloudy
5:57 PM 51.1 °F - 41.0 °F 68% 29.96 in 10.0 mi NW 4.6 mph - N/A   Scattered Clouds
6:57 PM 46.9 °F - 41.0 °F 80% 29.98 in 10.0 mi Calm Calm - N/A   Clear
7:57 PM 44.1 °F - 39.9 °F 85% 30.01 in 10.0 mi Calm Calm - N/A   Clear
8:57 PM 42.1 °F - 39.0 °F 89% 30.04 in 8.0 mi Calm Calm - N/A   Clear
9:57 PM 44.1 °F 41.5 °F 41.0 °F 89% 30.06 in 10.0 mi NW 4.6 mph - N/A   Clear
10:57 PM 42.1 °F 40.2 °F 39.0 °F 89% 30.08 in 10.0 mi NW 3.5 mph - N/A   Clear
11:57 PM 39.9 °F 37.8 °F 37.0 °F 89% 30.09 in 10.0 mi WNW 3.5 mph - N/A   Clear